[[{"header":{"parameterUnit":"m.s-1","parameterCategory":1,"la1":30.2992,"la2":30.254,"lo1":-89.0895,"lo2":-89.0443,"dy":0.0025,"dx":0.0025,"nx":19,"ny":19,"refTime":"2026-04-15T09:00:00:Z","depth":0,"parameterNumber":2,"parameterNumberName":"U-component_of_WINDS"},"data":[0,0,0,-1.849,-1.8491,-1.8569,-1.857,-1.8672,-1.8673,0,0,0,0,0,0,0,0,0,0,0,-1.8468,-1.8469,-1.849,-1.8492,-1.8569,-1.857,-1.8672,-1.8673,0,0,0,0,0,0,0,0,0,0,0,-1.8468,-1.8469,-1.8469,-1.8492,-1.8569,-1.857,-1.8672,-1.8612,0,0,0,0,0,0,0,0,0,0,-1.8536,-1.8517,-1.8468,-1.8469,-1.8492,-1.8569,-1.857,-1.8609,-1.8616,-1.8638,0,-1.8657,0,-1.8667,-1.868,-1.868,0,0,0,-1.8491,-1.8512,-1.8531,-1.847,-1.8493,-1.8569,-1.8534,-1.8613,-1.862,-1.8647,-1.8659,-1.8663,-1.8668,-1.8681,-1.8681,-1.8809,-1.8809,0,0,-1.8487,-1.8483,-1.8526,-1.8536,-1.8524,-1.8532,-1.8537,-1.8617,-1.8631,-1.8659,-1.8665,-1.867,-1.8681,-1.8682,-1.8808,-1.8809,0,0,0,-1.8475,-1.848,-1.8498,-1.8532,-1.8546,-1.8534,-1.854,-1.8627,-1.8633,-1.8666,-1.8671,-1.8682,-1.8683,-1.8808,-1.8809,-1.8835,0,0,0,-1.8472,-1.8473,-1.8496,-1.8494,-1.8544,-1.8587,-1.8547,-1.8627,-1.8637,-1.8671,-1.8682,-1.8684,-1.8807,-1.8808,-1.8833,-1.8849,0,0,0,-1.8463,-1.8472,-1.8483,-1.8494,-1.8527,-1.8586,-1.8597,-1.863,-1.864,-1.8681,-1.8685,-1.8806,-1.8808,-1.8831,-1.8846,-1.8881,0,0,0,-1.8452,-1.8507,-1.8484,-1.8548,-1.8527,-1.8602,-1.8596,-1.8653,-1.8691,-1.8683,-1.8807,-1.8808,-1.8831,-1.8844,-1.8879,-1.891,-1.8923,0,0,-1.852,-1.8515,-1.8553,-1.8535,-1.8613,-1.859,-1.8673,-1.8712,-1.872,-1.8779,-1.8782,-1.8834,-1.8846,-1.8881,-1.8995,-1.9004,0,0,0,-1.8574,-1.8601,-1.8623,-1.8658,-1.8688,-1.8715,-1.8741,-1.8756,-1.8806,-1.8749,-1.8856,-1.8863,-1.8884,-1.8899,-1.8908,-1.8926,-1.8815,-1.8815,-1.8815,-1.8666,-1.8671,-1.8734,-1.8749,-1.8784,-1.881,-1.8838,-1.8862,-1.8859,-1.8884,-1.8902,-1.897,-1.8987,-1.8994,-1.9012,-1.8919,-1.8919,-1.8919,-1.8919,-1.8766,-1.8805,-1.8798,-1.8857,-1.8863,-1.8913,-1.894,-1.8935,-1.8983,-1.8957,-1.8976,-1.8947,-1.9004,-1.9021,-1.8921,-1.8921,-1.892,-1.892,-1.892,-1.8827,-1.8847,-1.8862,-1.8913,-1.8952,-1.8965,-1.901,-1.9014,-1.9019,-1.9037,-1.9056,-1.9056,-1.9055,-1.9046,-1.9046,-1.9046,-1.9046,-1.9047,-1.9047,-1.8884,-1.8901,-1.8938,-1.8973,-1.8996,-1.9026,-1.9052,-1.9075,-1.9101,-1.9101,-1.9101,-1.9095,-1.9009,-1.8987,-1.905,-1.905,-1.9049,-1.9049,-1.9049,-1.8984,-1.8962,-1.9019,-1.9042,-1.9083,-1.9121,-1.9125,-1.9171,-1.919,-1.9212,-1.9202,-1.9138,-1.9134,-1.9127,-1.9109,-1.9201,-1.9201,-1.9201,-1.9201,-1.9036,-1.9034,-1.9093,-1.9128,-1.9164,-1.9173,-1.9237,-1.9258,-1.9276,-1.9288,-1.9275,-1.9252,-1.9244,-1.9245,-1.9236,-1.9219,-1.9336,-1.9336,-1.9336,-1.9098,-1.9099,-1.9153,-1.9169,-1.9201,-1.9229,-1.929,-1.9332,-1.9348,-1.9342,-1.9297,-1.9292,-1.9254,-1.9241,-1.9235,-1.9221,-1.919,0,0]},{"header":{"parameterUnit":"m.s-1","parameterCategory":1,"la1":30.2992,"la2":30.254,"lo1":-89.0895,"lo2":-89.0443,"dy":0.0025,"dx":0.0025,"nx":19,"ny":19,"refTime":"2026-04-15T09:00:00:Z","depth":0,"parameterNumber":3,"parameterNumberName":"V-component_of_WINDS"},"data":[0,0,0,4.4913,4.4914,4.4965,4.4965,4.5046,4.5047,0,0,0,0,0,0,0,0,0,0,0,4.4909,4.491,4.4913,4.4914,4.4965,4.4965,4.5046,4.5047,0,0,0,0,0,0,0,0,0,0,0,4.4908,4.491,4.4911,4.4915,4.4965,4.4965,4.5046,4.5001,0,0,0,0,0,0,0,0,0,0,4.4949,4.4957,4.4909,4.4911,4.4915,4.4965,4.4965,4.4999,4.5004,4.503,0,4.5058,0,4.5054,4.5053,4.5054,0,0,0,4.4906,4.4953,4.4956,4.4911,4.4916,4.4965,4.494,4.5002,4.5008,4.5037,4.5059,4.5061,4.5055,4.5054,4.5055,4.5234,4.5236,0,0,4.4903,4.4924,4.4952,4.4961,4.4956,4.4938,4.4942,4.5005,4.5029,4.5059,4.5063,4.5056,4.5055,4.5055,4.5233,4.5235,0,0,0,4.4901,4.4922,4.4924,4.4958,4.4966,4.494,4.4944,4.5026,4.5025,4.5063,4.5057,4.5055,4.5057,4.5232,4.5234,4.5314,0,0,0,4.4898,4.4921,4.4923,4.4937,4.4965,4.4997,4.4964,4.5021,4.5027,4.5057,4.5055,4.5057,4.523,4.5233,4.5309,4.5348,0,0,0,4.4902,4.4921,4.4932,4.4938,4.496,4.4996,4.4998,4.5022,4.5024,4.5054,4.5058,4.5229,4.5232,4.5304,4.5341,4.54,0,0,0,4.4911,4.5005,4.4934,4.5036,4.496,4.5046,4.4997,4.506,4.5095,4.5056,4.5231,4.5234,4.5303,4.5336,4.5395,4.5452,4.5478,0,0,4.5041,4.5021,4.5079,4.5017,4.5121,4.5037,4.5151,4.5164,4.5147,4.5206,4.521,4.5311,4.534,4.5399,4.5622,4.5643,0,0,0,4.5127,4.5169,4.5192,4.5226,4.5238,4.525,4.5243,4.5247,4.5295,4.5182,4.5348,4.5365,4.5399,4.5425,4.5443,4.5469,4.5247,4.5247,4.5247,4.5341,4.5314,4.5407,4.5386,4.542,4.541,4.5434,4.5438,4.5402,4.5442,4.5458,4.5597,4.5629,4.5642,4.567,4.5488,4.5488,4.5488,4.5489,4.5526,4.558,4.5528,4.56,4.5571,4.563,4.5623,4.5596,4.5645,4.5583,4.5611,4.5543,4.5666,4.5688,4.5494,4.5494,4.5493,4.5492,4.5492,4.5662,4.5683,4.5686,4.573,4.5767,4.5742,4.5792,4.5764,4.5738,4.5766,4.5778,4.5777,4.577,4.5774,4.5774,4.5775,4.5775,4.5776,4.5776,4.58,4.5801,4.5846,4.5865,4.5881,4.5899,4.5889,4.5904,4.5913,4.5889,4.5889,4.5847,4.5684,4.5642,4.5783,4.5782,4.5781,4.578,4.578,4.5996,4.5946,4.6017,4.6033,4.605,4.6087,4.605,4.6083,4.6091,4.6116,4.6068,4.5953,4.593,4.5916,4.5881,4.6075,4.6075,4.6075,4.6075,4.6108,4.6094,4.6157,4.6185,4.6209,4.6182,4.6259,4.6251,4.6235,4.6237,4.6205,4.6157,4.6144,4.6129,4.611,4.6077,4.6317,4.6317,4.6318,4.6226,4.6212,4.6284,4.6267,4.6277,4.6286,4.6357,4.639,4.6361,4.6327,4.6238,4.6228,4.615,4.6127,4.609,4.6061,4.5999,0,0]}]]